Powrót do katalogu

KUIPER-00115

AktywnyŁącznośćLEO
NORAD 65152·PAYLOAD·🇺🇸 United States

Wystrzelony Aug 11, 2025 z Cape Canaveral Space Force Station

Loading…

Następne Przeloty (najbliższe 24 godziny)

TLE

ŚwieżeSource: CelesTrak SupGP

Epoka: Sep 14, 2026, 22:16 UTC

1 65152C 25171W   26257.92799769  .00005580  00000+0  73066-3 0  2574
2 65152  51.9007  51.2874 0000632 108.4123 119.7016 14.79915305    10

Śledź KUIPER-00115 w czasie rzeczywistym z AllMySat

Download on the App Store